Regional Weather Roundup
Issued by NWS

Home | Current Version | Previous Version | Graphics & Text | Print | Product List | Glossary On
Versions: 1 2 3 4 5 6 7 8 9 10 11 12 13 14 15 16 17 18 19 20 21 22 23 24 25 26 27 28
000
ASUS45 KSLC 221910
RWRUT

UTAH REGIONAL WEATHER ROUNDUP
NATIONAL WEATHER SERVICE SALT LAKE CITY UT
100 PM MDT WED OCT 22 2014

UTZ001>011-023>025-222000-

NORTHERN UTAH

CITY           SKY/WX    TMP DP  RH WIND       PRES   REMARKS
BRIGHAM CITY   SUNNY     55  31  40 CALM      30.22F
HILL AFB       SUNNY     55  31  39 CALM      30.21F
LOGAN          SUNNY     51  32  48 VRB3      30.22F
OGDEN          SUNNY     57  31  37 W6        30.20F
PROVO AIRPORT  SUNNY     54  34  47 W3        30.21F
SALT LAKE CITY MOSUNNY   59  30  33 VRB5      30.20S
VERNAL         SUNNY     55  43  63 SE5       30.18F
WENDOVER       SUNNY     54  30  40 SE5       30.21F
HEBER CITY     SUNNY     54  30  40 CALM      30.20F
WEST JORDAN    SUNNY     57  37  47 CALM      30.21S

$$

UTZ012>022-026-027-222000-

SOUTHERN/CENTRAL UTAH

CITY           SKY/WX    TMP DP  RH WIND       PRES   REMARKS
BLANDING       SUNNY     64  41  42 S7        30.26F
BRYCE CANYON   SUNNY     59  29  31 VRB7      30.26F
CEDAR CITY     SUNNY     59  33  37 VRB3      30.19F
DELTA          SUNNY     57  29  34 CALM      30.20F
HANKSVILLE       N/A     68  37  32 CALM      30.15F
MILFORD        SUNNY     60  27  28 NE7       30.19F
MOAB/CYNLANDS  SUNNY     67  41  38 CALM      30.11F
PRICE          SUNNY     61  28  28 CALM      30.18F
ST GEORGE      CLEAR     72  39  30 W3        30.10F
KANAB            N/A     68  37  32 S7        30.19F

$$

REGIONAL REPORTS     COLORADO/ARIZONA

CITY           SKY/WX    TMP DP  RH WIND       PRES   REMARKS
CRAIG, CO      PTSUNNY   55  41  59 VRB6      30.21F
GRAND JUNCTION MOSUNNY   63  46  54 S3        30.14F
RIFLE          SUNNY     58  44  60 CALM      30.16F
MONTROSE       MOSUNNY   63  43  48 VRB5      30.18F
CORTEZ         SUNNY     67  42  40 S5        30.20F
PAGE, AZ       SUNNY     72  39  30 NE7       30.13F
GRAND CANYON   SUNNY     64  31  28 N5        30.25F
KINGMAN        SUNNY     78  41  26 CALM      30.09S
FLAGSTAFF      SUNNY     65  36  34 SE8       30.26F

$$

REGIONAL REPORTS    NEVADA/IDAHO/WYOMING

CITY           SKY/WX    TMP DP  RH WIND       PRES   REMARKS
LAS VEGAS, NV  MOSUNNY   79  26  14 CALM      30.01F
ELY            SUNNY     61  21  21 SE3       30.20F
ELKO           SUNNY     54  20  26 CALM      30.19F
POCATELLO, ID  SUNNY     55  29  36 NW5       30.20F
BURLEY         SUNNY     58  32  37 E5        30.16F
EVANSTON, WY   SUNNY     51  20  29 SW12      30.23F
ROCK SPRINGS   MOSUNNY   47  28  47 W13       30.22F
KEMMERER       SUNNY     46  16  29 SW18      30.23F

$$



USA.gov is the U.S. government's official web portal to all federal, state and local government web resources and services.